Find Orbital Reflector

NORAD ID: 43771 Int'l Des: NNA 2018-099 Owner: NVART Country: US operational
LEOCIRCULARRETROGRADESSO

リアルタイム位置

3D地球を読み込み中...

Orbital Reflectorについて

説明を読み込み中...

次回通過

Passes for default location (London). Set your location on the main map for personalized predictions.

高度履歴

Loading altitude history...

軌道要素

1 43771U 18099P 26104.88679938 .00009383 00000-0 30294-3 0 9994
2 43771 97.4301 168.2212 0010164 144.5428 215.6491 15.32292453403843
Epoch: Apr 14, 2026 • Age: 12 hours

現在のステータス

高度 464.9 km
速度 7.64 km/s
衛星直下点 14.45°N, 12.49°E
打ち上げ日 Dec 3, 2018
運用期間 7.3 years
タイプ other

技術仕様

分類 Payload
質量 3.20 kg
乾燥質量 3.20 kg
総質量 3.20 kg
長さ 0.30 m
直径 0.10 m
スパン 30.00 m
形状 Box+4 pan+balloon
製造者 GWEST
バスタイプ Cubesat 3U
フェーズステータス In Orbit
所有者/国 NVART/US

Most Searched